This is the latest recevied weather packets stored in our database for station/object CE3UOB-10. If no packets are shown the sender has not sent any weather packets the latest 10 day(s).
| Time | Temp. | Humidity | Pressure | Rain* | Wind** | Luminosity | Snow |
|---|---|---|---|---|---|---|---|
| 1777545256 | 8.89° C | 86% | 990.1 hPa | - | - | - | - |
| 1777543456 | 8.89° C | 89% | 990.1 hPa | - | - | - | - |
| 1777541655 | 9.44° C | 87% | 989.9 hPa | - | - | - | - |
| 1777539862 | 10° C | 85% | 989.9 hPa | - | - | - | - |
| 1777539856 | 10° C | 85% | 989.9 hPa | - | - | - | - |
| 1777538062 | 10° C | 86% | 989.8 hPa | - | - | - | - |
| 1777538056 | 10° C | 86% | 989.8 hPa | - | - | - | - |
| 1777536262 | 10° C | 83% | 990 hPa | - | - | - | - |
| 1777536256 | 10° C | 83% | 990 hPa | - | - | - | - |
| 1777534463 | 10.56° C | 84% | 990.1 hPa | - | - | - | - |
| 1777534456 | 10.56° C | 84% | 990.1 hPa | - | - | - | - |
| 1777532662 | 10.56° C | 82% | 990.2 hPa | - | - | - | - |
| 1777532655 | 10.56° C | 82% | 990.2 hPa | - | - | - | - |
| 1777530863 | 10.56° C | 80% | 990.4 hPa | - | - | - | - |
| 1777530855 | 10.56° C | 80% | 990.4 hPa | - | - | - | - |
| 1777529063 | 11.11° C | 79% | 990.2 hPa | - | - | - | - |
| 1777529055 | 11.11° C | 79% | 990.2 hPa | - | - | - | - |
| 1777527263 | 11.11° C | 79% | 990.1 hPa | - | - | - | - |
| 1777527255 | 11.11° C | 79% | 990.1 hPa | - | - | - | - |
| 1777525463 | 11.11° C | 79% | 990.1 hPa | - | - | - | - |
| 1777525455 | 11.11° C | 79% | 990.1 hPa | - | - | - | - |
| 1777523662 | 11.67° C | 77% | 990.1 hPa | - | - | - | - |
| 1777523654 | 11.67° C | 77% | 990.1 hPa | - | - | - | - |
| 1777521858 | 11.67° C | 76% | 990.2 hPa | - | - | - | - |
| 1777521855 | 11.67° C | 76% | 990.2 hPa | - | - | - | - |
* Rain since midnight (hover to see other rain measurements)
** Current wind speed in m/s (hover to see current wind gust speed)